Location: Altheimersberg
(48.9183°N, 10.9297°E)
Time: 16:01:49
(UTC+00:00)

Daily predictions for brighter satellites

Satellite Brightness Start Highest point End
(mag) Time Altitude Azimuth Time Altitude Azimuth Time Altitude Azimuth
Cosmos 1933 Rocket 3.8 19:28:37 10° N 19:32:54 55° ENE 19:37:10 10° SSE
Meteor 1-14 Rocket 4.4 19:27:08 10° NNW 19:32:59 87° W 19:38:39 10° S
IGS 5A 3.7 19:29:19 10° SSE 19:33:22 56° ENE 19:37:28 10° N
SJ 16-02 1.4 19:31:00 10° S 19:35:21 60° ESE 19:39:44 10° NNE
USA 267 4.4 19:32:43 10° SSE 19:38:36 35° SW 19:44:30 10° WNW
Cosmos 1151 Rocket 3.7 19:36:30 10° SSW 19:40:50 61° WNW 19:45:12 10° N
CZ-2C R/B 4.3 19:38:39 10° NNE 19:42:52 37° E 19:47:07 10° SSE
Cosmos 1500 3.6 19:40:13 10° NNW 19:43:56 62° W 19:47:36 10° S
USA 307 4.3 19:40:51 10° WNW 19:44:34 29° SW 19:48:17 10° SSE
ERS-2 4.2 19:44:19 10° N 19:47:34 31° WNW 19:50:49 10° SW
SWARM A 4.2 19:44:58 10° N 19:48:18 69° E 19:51:35 10° S
Cosmos 1782 4.1 19:46:36 10° SSW 19:50:24 44° WNW 19:54:15 10° N
Resurs 1-3 4.4 19:46:18 10° S 19:50:35 52° W 19:54:54 10° NNW
Landsat 7 3.8 19:45:53 10° SSE 19:50:38 76° ENE 19:55:25 10° N
ERBS 2.8 19:49:49 10° NW 19:53:04 53° NNE 19:56:16 10° ESE
ERS-1 Rocket 4.0 19:49:20 10° SE 19:53:45 32° ENE 19:58:09 10° N
Meteor 1-5 Rocket 4.2 19:49:49 10° NNW 19:55:11 79° W 20:00:28 10° S
SPOT 5 4.1 19:51:32 10° SE 19:56:11 34° ENE 20:00:58 10° N
MetOp-B 4.2 19:51:03 10° SSE 19:56:22 77° ENE 20:01:45 10° NNW
OBJECT-B 3.6 19:55:26 10° SW 19:57:40 17° W 19:59:55 10° NW
ARIANE 5 R/B 3.2 19:55:47 11° SE 19:59:37 42° ENE 20:03:43 10° N
USA 245 2.7 20:00:07 16° SE 20:01:41 39° ENE 20:04:05 10° N
SPOT 1/Viking Rocket 3.6 19:56:41 10° SSE 20:01:50 69° ENE 20:06:59 10° N
Spot 2 Rocket 3.8 19:57:54 11° SE 20:02:36 53° ENE 20:07:30 10° N
Cosmos 1937 Rocket 4.5 19:58:20 10° SSE 20:02:36 27° E 20:06:56 10° NE
Cosmos 2297 4.2 19:58:57 10° S 20:04:08 38° ESE 20:09:20 10° NE
Gbstr 26 Del rocket 4.3 19:56:20 10° WNW 20:04:17 88° SSW 20:10:53 11° ESE
ISS -3.7 20:05:17 10° SW 20:08:35 58° SSE 20:11:55 10° ENE
Meteor 1-11 Rocket 3.9 20:07:03 10° N 20:13:03 81° E 20:18:41 11° SSE
Cosmos 1340 Rocket 3.4 20:11:55 10° N 20:15:50 43° ENE 20:18:40 17° SE
Cosmos 2082 Rocket 2.7 20:10:48 10° NW 20:16:17 56° WSW 20:21:44 10° S
Cosmos 1680 Rocket 3.5 20:12:12 10° NNW 20:17:34 85° ENE 20:22:04 15° SSE
Cosmos 2154 Rocket 4.1 20:11:30 10° N 20:17:49 70° ENE 20:23:27 13° SSE
SPOT 3 Rocket 4.1 20:13:34 10° S 20:18:37 57° W 20:23:43 10° NNW
Cosmos 1943 Rocket 2.7 20:15:28 10° S 20:20:36 38° ESE 20:25:44 10° NE
CZ-4C R/B 4.4 20:14:45 10° WNW 20:21:04 30° WSW 20:28:03 10° S
Cosmos 2074 Rocket 4.2 20:15:23 10° NNW 20:21:43 78° W 20:27:59 10° S
Nadezhda 1 Rocket 4.1 20:15:40 10° S 20:21:51 63° E 20:27:57 10° NNE
Cosmos 1461 3.7 20:18:23 10° S 20:22:41 36° ESE 20:26:55 10° NE
Cosmos 2184 Rocket 4.1 20:17:52 10° NNW 20:24:05 78° W 20:30:14 10° S
Cosmos 44 3.7 20:24:28 10° NW 20:29:52 66° WSW 20:33:48 18° SSE
BREEZE-M R/B 1.8 20:29:30 10° W 20:31:56 76° N 20:33:56 16° E
Cosmos 1544 3.1 20:29:29 10° N 20:33:06 66° E 20:35:19 22° SSE
Iridium 4 Rocket 4.0 20:30:03 10° S 20:35:55 76° W 20:41:50 10° N
Cosmos 1271 Rocket 3.7 20:32:59 10° SSW 20:36:52 48° WNW 20:40:46 10° N
Cosmos 967 Rocket 4.4 20:32:32 10° SSW 20:38:45 69° ESE 20:45:00 10° NE
Cosmos 1536 2.9 20:37:29 10° NNW 20:41:31 74° W 20:44:24 18° S
Cosmos 2278 Rocket 3.8 20:37:04 10° WSW 20:42:19 38° NW 20:47:36 10° NNE
Cosmos 1869 Rocket 3.8 20:38:48 10° NNW 20:43:06 66° W 20:46:32 16° S
Cosmos 990 Rocket 4.1 20:39:47 10° SSW 20:45:02 84° WNW 20:50:21 10° NNE
Cosmos 2228 Rocket 3.4 20:41:22 10° SSW 20:45:47 66° W 20:50:17 10° N
Cosmos 2369 Rocket 2.9 20:42:46 20° SSE 20:45:48 33° ESE 20:50:47 10° NE
ATLAS 2AS CENTAUR R/B 3.1 20:38:53 10° NW 20:46:04 57° WSW 20:51:07 18° SSE
USA 215 4.4 20:39:57 10° ENE 20:46:06 45° N 20:52:14 10° WNW
Resurs 01 Rocket 3.6 20:46:35 10° SSW 20:50:10 24° W 20:53:46 10° NW
Cosmos 1898 Rocket 3.5 20:45:55 10° SSW 20:51:14 89° E 20:56:37 10° NNE
Cosmos 2366 rocket 4.5 20:50:08 10° N 20:56:06 47° ENE 20:59:52 22° SE
Tianhe-1 2.9 20:55:16 10° SW 20:56:46 18° SSW 20:56:46 18° SSW
Terra 1.8 20:55:27 24° SSE 20:58:18 77° ENE 21:03:05 10° NNW
Cosmos 1975 3.8 20:56:24 10° N 21:00:04 34° ENE 21:01:34 25° ESE
Cosmos 1707 Rocket 3.5 20:58:17 21° S 21:01:13 80° E 21:05:41 10° NNE
Meteor 2-9 Rocket 4.4 20:56:03 10° N 21:01:44 58° ENE 21:04:57 25° SE
CARTOSAT-1 4.2 20:58:59 18° S 21:02:00 50° W 21:06:14 10° NNW
Cosmos 2181 Rocket 4.3 20:58:38 22° SSE 21:02:17 48° E 21:08:08 10° NNE
Cosmos 1818 3.9 20:59:08 10° NW 21:04:30 56° WSW 21:07:40 24° S
Cosmos 2084 Rocket 4.4 21:02:37 10° WNW 21:06:34 37° WSW 21:08:37 23° S
DNEPR-1 R/B 4.0 21:03:19 10° SW 21:09:14 86° NW 21:14:07 10° NE
RESURS DK-1 2.9 21:09:55 10° NNW 21:14:01 51° NE 21:15:49 29° ESE
SJ 16-02 4.1 21:11:05 10° W 21:14:20 20° NW 21:17:36 10° N
Cosmos 2341 Rocket 4.1 21:15:54 10° NNW 21:22:19 79° W 21:26:26 24° S
Cosmos 1743 3.5 21:19:28 10° NNW 21:23:10 45° W 21:25:04 25° SSW
Cosmos 1733 Rocket 3.2 21:22:32 10° NNW 21:26:51 68° W 21:28:47 31° S
Cosmos 2218 Rocket 4.0 21:21:00 10° N 21:27:21 79° E 21:30:56 28° SSE
Cosmos 1125 Rocket 4.4 21:27:37 27° ESE 21:28:45 29° E 21:33:12 10° NE
ERBS 3.8 21:26:16 10° WNW 21:28:58 23° SW 21:29:01 23° SW
ERS-1 Rocket 3.9 21:29:16 19° SSW 21:32:26 40° W 21:37:11 10° NNW
ALOS 2 4.3 21:31:08 17° E 21:33:02 23° ENE 21:36:28 10° NNE
SPOT 5 4.0 21:30:45 19° SSW 21:34:07 41° W 21:39:11 10° NNW
ARIANE 5 R/B 4.5 21:33:19 12° SW 21:36:15 23° W 21:39:43 10° NW
SL-8 Rocket 4.1 21:31:49 10° NNW 21:38:10 77° W 21:41:47 27° S
Cosmos 1238 Rocket 3.8 21:32:57 10° NNW 21:38:39 64° W 21:41:07 29° SSW
Meteor 1-19 Rocket 4.1 21:35:59 26° S 21:39:07 89° WNW 21:44:36 10° NNE
Spot 4 4.5 21:38:11 29° ESE 21:40:11 46° ENE 21:44:49 10° N
Meteor 2-4 Rocket 3.8 21:39:42 32° SSE 21:42:10 59° E 21:47:37 10° NNE
Cosmos 1937 Rocket 4.4 21:39:21 10° SW 21:44:18 47° WNW 21:49:21 10° NNE
ISS -3.1 21:42:08 10° W 21:45:28 55° N 21:48:47 10° ENE
Cosmos 1908 Rocket 3.5 21:43:21 10° N 21:47:51 77° E 21:49:13 44° SSE
Cosmos 1833 4.2 21:45:36 10° NNW 21:51:25 88° ENE 21:53:59 35° SSE
H-2A R/B 4.5 21:52:41 10° N 21:56:39 42° WNW 21:59:11 20° SW
Okean 1 4.4 21:55:06 22° SW 21:57:11 39° WNW 22:00:57 10° N
BREEZE-M DEB (TANK) 3.3 21:54:29 10° WNW 21:59:26 49° N 22:00:30 28° ENE
Cosmos 1867 3.5 21:56:31 17° SW 22:00:44 89° NW 22:06:16 10° NE
Cosmos 1461 4.4 21:57:18 10° WSW 22:01:45 41° NW 22:06:06 10° NNE
Lacrosse 5 2.6 22:02:09 33° ESE 22:02:09 33° ESE 22:06:22 10° ENE
Cosmos 1943 Rocket 3.3 21:59:01 10° WSW 22:04:19 42° NW 22:09:37 10° NNE
Cosmos 1048 Rocket 4.0 21:59:02 10° NNW 22:04:20 73° WSW 22:06:10 41° S
Cosmos 2242 Rocket 3.5 22:05:59 49° S 22:07:09 80° E 22:11:40 10° NNE
Okean 1-7 2.9 22:08:56 54° S 22:09:51 77° E 22:14:10 10° NNE
Okean 2 Rocket 4.5 22:06:03 10° N 22:09:51 27° ENE 22:11:08 23° E
Cosmos 1656 Rocket 3.6 22:08:33 30° SSW 22:11:24 90° SE 22:17:01 10° NNE
NOSS 2-1 (E) 4.3 22:07:04 10° NW 22:11:51 70° NE 22:15:25 27° SE
ATLAS CENTAUR R/B 1.1 22:11:29 51° SW 22:12:20 80° NW 22:16:10 10° NE
SL-08 R/B 4.5 22:07:21 10° N 22:13:39 84° W 22:16:29 36° S
SL-27 R/B 2.5 22:12:17 10° NNW 22:15:31 63° W 22:15:31 63° W
Meteor 1-13 Rocket 4.3 22:16:23 40° SSE 22:18:09 59° E 22:23:36 10° NNE
Cosmos 1703 Rocket 3.5 22:17:22 50° SSW 22:18:30 84° WNW 22:22:57 10° N
Cosmos 1782 Rocket 3.5 22:16:04 10° N 22:20:32 89° W 22:21:28 55° S
Cosmos 1269 Rocket 4.4 22:21:37 10° NNW 22:26:52 59° ENE 22:28:56 35° SE
Cosmos 1733 4.1 22:23:57 10° N 22:27:30 36° ENE 22:27:56 35° E
USA 215 4.1 22:22:11 10° E 22:28:28 51° NNE 22:34:44 10° WNW
Cosmos 1607 4.2 22:22:46 11° SW 22:29:06 71° NW 22:35:37 10° NE
Cosmos 2369 Rocket 3.0 22:24:29 11° SW 22:29:39 48° NW 22:35:09 10° NNE
Cosmos 1934 Rocket 4.2 22:23:36 10° N 22:29:39 59° ENE 22:32:08 35° SE
Cosmos 44 Rocket 3.5 22:30:13 10° NW 22:35:23 61° WSW 22:36:33 48° S
Terra 4.1 22:34:20 11° WSW 22:36:38 15° W 22:39:20 10° NW
Cosmos 2344 4.3 22:28:36 10° NW 22:37:48 80° SW 22:46:11 25° SSE
Cosmos 1400 Rocket 4.3 22:35:33 10° N 22:39:05 27° ENE 22:40:04 24° E
Cosmos 2298 Rocket 4.4 22:36:28 27° SW 22:39:16 60° WNW 22:44:32 10° NNE
Cosmos 494 Rocket 4.4 22:34:23 10° NNW 22:39:22 49° WSW 22:40:39 40° SSW
Cosmos 1821 Rocket 4.1 22:33:44 10° NNW 22:40:07 71° W 22:42:44 37° SSW
COBE Rocket 4.0 22:38:52 45° SSE 22:40:26 79° ENE 22:45:39 10° N
Thor Agena Rocket 4.2 22:37:44 10° NNE 22:42:43 41° E 22:43:56 36° SE
Cosmos 724 4.3 22:45:27 32° SSW 22:48:33 86° SE 22:54:52 10° NE
RESURS DK-1 4.2 22:48:42 10° WNW 22:51:40 19° WSW 22:51:42 19° WSW
Cosmos 1726 4.0 22:53:39 10° NNE 22:56:32 21° ENE 22:57:19 20° E
NOSS 2-1 (C) 4.3 22:53:17 10° NW 22:58:08 59° SW 22:59:58 42° S
Cosmos 1356 Rocket 4.0 22:55:05 10° NNW 22:59:12 45° W 22:59:46 42° WSW
Okean 3 3.7 22:59:12 49° WSW 22:59:58 59° WNW 23:04:09 10° N
Okean 1 Rocket 4.3 22:56:39 10° N 23:00:38 33° ENE 23:01:53 28° ESE
Cosmos 1378 3.8 23:00:27 43° W 23:00:50 45° WNW 23:04:26 10° N
Cosmos 2221 Rocket 3.6 23:01:50 58° SSE 23:02:36 71° E 23:07:09 10° NNE
Cosmos 1674 Rocket 4.3 23:03:14 38° ESE 23:03:52 41° E 23:08:05 10° NNE
NOSS 2-1 (D) 4.5 23:00:11 10° NW 23:05:01 53° SW 23:06:37 42° S
COSMOS 2487 2.9 23:02:44 10° NNW 23:05:34 52° WNW 23:05:34 52° WNW
Cosmos 1805 3.3 23:03:03 10° NNW 23:06:56 64° W 23:07:04 64° WSW
Cosmos 1535 Rocket 4.5 23:01:48 10° N 23:08:06 84° W 23:10:33 41° S
ALOS 2 3.1 23:08:32 43° WSW 23:09:06 46° W 23:13:21 10° NNW
SAR-Lupe-2 3.7 23:06:53 10° N 23:10:27 66° WNW 23:10:33 65° W
Cosmos 1125 Rocket 4.3 23:07:51 24° WSW 23:10:37 45° WNW 23:15:39 10° NNE
Cosmos 1066 Rocket 4.3 23:09:13 39° SSW 23:11:21 69° WNW 23:16:56 10° N
Nimbus 7 Rocket 4.3 23:08:40 10° NNE 23:14:36 90° WNW 23:16:52 41° SSW
Cosmos 1300 Rocket 3.8 23:13:47 10° NNW 23:18:04 52° W 23:18:37 49° WSW
Cosmos 2227 Rocket 3.0 23:13:13 10° NNW 23:18:41 46° NE 23:22:33 19° ESE
Cosmos 2297 Rocket 2.6 23:15:08 10° NNW 23:20:46 60° ENE 23:23:53 26° SE
COSMOS 2455 2.8 23:16:28 10° NW 23:22:32 89° SW 23:25:11 36° SSE
ISS -3.4 23:19:11 10° WNW 23:22:32 63° NNE 23:22:53 58° NE
Okean 2 4.1 23:22:15 40° ESE 23:22:43 42° E 23:26:39 10° NNE
Cosmos 1766 3.4 23:23:05 10° NNW 23:26:58 56° W 23:27:05 56° WSW
EO 1 Delta rocket 4.4 23:30:18 42° S 23:32:21 90° WSW 23:39:12 10° N
Meteor 2-10 4.0 23:28:43 10° N 23:34:04 82° ENE 23:35:40 45° SSE
USA 276 3.7 23:39:54 28° ENE 23:39:54 28° ENE 23:41:35 10° ENE
SL-16 R/B 4.1 23:35:41 10° ESE 23:41:03 31° ENE 23:46:27 10° N
TSX-5 4.3 23:37:52 10° NNW 23:41:14 50° NE 23:42:25 36° ESE
Cosmos 1953 4.2 23:40:13 10° NNE 23:43:32 24° ENE 23:45:19 18° ESE
Lacrosse 5 2.2 23:41:17 22° WSW 23:44:33 66° NNW 23:49:39 10° NE
Cosmos 614 Rocket 4.3 23:40:04 10° NNW 23:45:07 59° ENE 23:47:41 28° SE
Cosmos 1470 2.6 23:42:25 10° N 23:46:23 84° E 23:46:48 70° SSE
Cosmos 1605 Rocket 4.2 23:40:14 10° NNW 23:46:26 63° W 23:48:49 38° SSW
SeaSat 1 2.8 23:42:51 10° NE 23:47:41 51° ESE 23:48:47 42° SSE
Okean 2 Rocket 4.0 23:44:00 10° NNW 23:47:58 33° W 23:48:30 32° WSW
Cosmos 2151 Rocket 4.2 23:46:04 10° NNW 23:50:18 41° W 23:50:56 38° WSW
ATLAS CENTAUR R/B 3.9 23:49:22 10° WNW 23:51:50 16° NNW 23:54:24 10° NNE
Resurs 1-4 Rocket 3.8 23:49:55 10° NE 23:54:01 23° E 23:56:32 16° SE
